K0RCW Weather Reports


Display with metric or nautical units.
time (UTC)temp
F
wind
direction
speed
MPH
gust
MPH
rain 1hr
in
rain 24hr
in
rain mn
in
humidity
%
barometer
mb
20220126111030 10 204 0.0 1.0 0.00 0.02 0.00 85 1017.6
20220126110530 10 204 0.0 0.0 0.00 0.02 0.00 85 1017.5
20220126105533 11 204 0.0 0.0 0.00 0.02 0.00 86 1017.6
20220126105027 11 204 0.0 0.0 0.00 0.02 0.00 85 1017.6
20220126104542 11 204 0.0 0.0 0.00 0.02 0.00 86 1017.7
20220126104034 11 204 0.0 0.0 0.00 0.02 0.00 85 1017.8
20220126103526 11 203 0.0 0.0 0.00 0.02 0.00 85 1017.9
20220126103042 11 204 0.0 2.0 0.00 0.02 0.00 86 1018.0
20220126102524 11 204 0.0 2.0 0.00 0.02 0.00 86 1018.1
20220126102034 11 204 0.0 2.0 0.00 0.02 0.00 85 1018.2
20220126101545 11 204 0.0 2.0 0.00 0.02 0.00 85 1018.3
20220126101019 11 204 0.0 0.0 0.00 0.02 0.00 85 1018.4
20220126100518 11 204 0.0 0.0 0.00 0.02 0.00 85 1018.5
20220126100029 12 204 0.0 1.0 0.00 0.02 0.00 85 1018.6
20220126095517 12 204 0.0 1.0 0.00 0.02 0.00 85 1018.7
20220126095022 12 204 0.0 2.0 0.00 0.02 0.00 85 1018.8
20220126094541 12 204 1.0 2.0 0.00 0.02 0.00 85 1018.9
20220126094015 13 204 1.0 2.0 0.00 0.02 0.00 85 1018.9
20220126093513 13 203 0.0 1.0 0.00 0.02 0.00 85 1019.0
20220126093012 13 203 0.0 0.0 0.00 0.02 0.00 86 1019.0
20220126092512 13 203 0.0 2.0 0.00 0.02 0.00 86 1019.2
20220126092018 13 203 0.0 2.0 0.00 0.02 0.00 85 1019.2
20220126091514 13 203 0.0 2.0 0.00 0.02 0.00 85 1019.2
20220126091009 13 203 0.0 2.0 0.00 0.02 0.00 86 1019.3
20220126090519 13 203 0.0 1.0 0.00 0.02 0.00 86 1019.4
20220126090017 13 203 0.0 0.0 0.00 0.02 0.00 86 1019.5
20220126085007 13 203 0.0 0.0 0.00 0.02 0.00 86 1019.5
20220126084515 13 203 0.0 0.0 0.00 0.02 0.00 85 1019.6
20220126084011 14 203 0.0 0.0 0.00 0.02 0.00 85 1019.8
20220126083504 14 203 0.0 1.0 0.00 0.02 0.00 86 1019.9
20220126083003 15 203 0.0 1.0 0.00 0.02 0.00 86 1019.9
20220126082502 15 203 0.0 1.0 0.00 0.02 0.00 87 1019.9
20220126082003 15 203 0.0 1.0 0.00 0.02 0.00 87 1020.0
20220126081709 14 203 0.0 1.0 0.00 0.02 0.00 87 1020.1
20220126081059 15 203 0.0 0.0 0.00 0.02 0.00 87 1020.2
20220126080604 15 203 0.0 0.0 0.00 0.02 0.00 87 1020.5
20220126080325 15 203 0.0 0.0 0.00 0.02 0.00 87 1020.5
20220126075609 15 203 0.0 0.0 0.00 0.02 0.00 87 1020.6
20220126075056 15 203 0.0 0.0 0.00 0.02 0.00 87 1020.7
20220126074637 15 203 0.0 1.0 0.00 0.02 0.00 87 1020.7
20220126074054 15 203 0.0 1.0 0.00 0.02 0.00 87 1020.8
20220126073553 15 203 0.0 0.0 0.00 0.02 0.00 87 1021.0
20220126073144 15 203 0.0 2.0 0.00 0.02 0.00 87 1021.0
20220126072612 16 203 0.0 2.0 0.00 0.02 0.00 87 1021.2
20220126072051 16 203 1.0 2.0 0.00 0.02 0.00 87 1021.3
20220126071559 16 203 0.0 1.0 0.00 0.02 0.00 87 1021.6
20220126071047 16 203 0.0 1.0 0.00 0.02 0.00 87 1021.7
20220126070548 17 203 0.0 0.0 0.00 0.02 0.00 87 1021.8
20220126070131 17 203 0.0 0.0 0.00 0.02 0.00 87 1021.9
20220126065604 17 203 0.0 0.0 0.00 0.02 0.02 87 1021.9
20220126064615 18 203 0.0 0.0 0.00 0.02 0.02 87 1022.1
20220126064042 18 203 0.0 3.0 0.00 0.02 0.02 87 1022.1
20220126063546 18 203 0.0 4.0 0.00 0.02 0.02 87 1022.2
20220126063149 18 202 1.0 4.0 0.00 0.02 0.02 87 1022.2
20220126062541 18 203 1.0 4.0 0.00 0.02 0.02 87 1022.4
20220126062043 19 205 0.0 3.0 0.00 0.02 0.02 88 1022.6
20220126061627 19 205 0.0 3.0 0.00 0.02 0.02 88 1022.6
20220126061042 19 205 1.0 4.0 0.00 0.02 0.02 88 1022.6
20220126060547 19 205 0.0 4.0 0.00 0.02 0.02 88 1022.6
20220126060049 19 207 2.0 3.0 0.00 0.02 0.02 88 1022.7
20220126055545 19 206 0.0 3.0 0.00 0.02 0.02 88 1022.7
20220126055034 19 206 0.0 4.0 0.00 0.02 0.02 88 1022.8
20220126054633 19 206 1.0 4.0 0.00 0.02 0.02 88 1022.7
20220126054032 19 207 0.0 3.0 0.00 0.02 0.02 88 1022.9
20220126053559 20 206 0.0 2.0 0.00 0.02 0.02 88 1022.9
20220126053137 20 206 0.0 4.0 0.00 0.02 0.02 88 1022.9
20220126052530 20 206 1.0 4.0 0.00 0.02 0.02 88 1023.0
20220126052032 20 197 0.0 3.0 0.00 0.02 0.02 88 1023.1
20220126051609 20 197 0.0 2.0 0.00 0.02 0.02 88 1023.2
20220126051037 20 197 0.0 3.0 0.00 0.02 0.02 88 1023.2
20220126050546 20 197 0.0 3.0 0.00 0.02 0.02 88 1023.3
20220126050033 21 197 1.0 3.0 0.00 0.02 0.02 88 1023.3
20220126045537 21 197 1.0 3.0 0.00 0.02 0.02 88 1023.2
20220126045039 21 197 1.0 4.0 0.00 0.02 0.02 89 1023.3
20220126044043 21 194 1.0 4.0 0.00 0.02 0.02 89 1023.4
20220126043524 21 194 1.0 3.0 0.00 0.02 0.02 89 1023.5
20220126043040 22 192 1.0 3.0 0.00 0.02 0.02 89 1023.5
20220126042528 22 217 1.0 3.0 0.00 0.02 0.02 89 1023.4
20220126042023 22 217 1.0 3.0 0.00 0.02 0.02 88 1023.5
20220126041529 22 217 1.0 3.0 0.00 0.02 0.02 89 1023.5
20220126041033 21 171 0.0 0.0 0.00 0.02 0.02 79 1023.6
20220126040542 21 171 0.0 0.0 0.00 0.02 0.02 78 1023.6
20220126040022 21 163 0.0 0.0 0.00 0.02 0.02 78 1023.6
20220126035534 21 161 0.0 0.0 0.00 0.02 0.02 78 1023.6
20220126035033 22 153 0.0 0.0 0.00 0.02 0.02 78 1023.6
20220126034548 22 152 0.0 0.0 0.00 0.02 0.02 77 1023.6
20220126034019 22 152 0.0 0.0 0.00 0.02 0.02 77 1023.6
20220126033518 22 132 0.0 0.0 0.00 0.02 0.02 77 1023.6
20220126033026 23 132 0.0 0.0 0.00 0.02 0.02 77 1023.6
20220126032539 23 126 0.0 0.0 0.00 0.02 0.02 77 1023.7
20220126032019 23 126 0.0 1.0 0.00 0.02 0.02 78 1023.7
20220126031536 23 116 0.0 2.0 0.00 0.02 0.02 80 1023.8
20220126031017 23 157 0.0 2.0 0.00 0.02 0.02 82 1023.8
20220126030517 23 148 0.0 2.0 0.00 0.02 0.02 83 1023.9
20220126030058 22 161 0.0 0.0 0.00 0.02 0.02 83 1023.9
20220126025517 22 149 0.0 0.0 0.00 0.02 0.02 83 1024.0
20220126025017 22 149 0.0 0.0 0.00 0.02 0.02 83 1023.9
20220126024530 22 149 0.0 0.0 0.00 0.02 0.02 83 1023.9
20220126023521 22 43 0.0 0.0 0.00 0.02 0.02 90 1023.9
20220126023014 22 43 0.0 0.0 0.00 0.02 0.02 90 1023.9
20220126022514 22 43 0.0 0.0 0.00 0.02 0.02 90 1023.8
20220126022014 22 43 0.0 0.0 0.00 0.02 0.02 89 1023.8
20220126021515 22 43 0.0 0.0 0.00 0.02 0.02 89 1023.8
20220126021022 22 43 0.0 0.0 0.00 0.02 0.02 89 1023.8
20220126020522 22 43 0.0 0.0 0.00 0.02 0.02 89 1023.9
20220126020033 22 43 0.0 0.0 0.00 0.02 0.02 89 1023.9
20220126015513 22 43 0.0 0.0 0.00 0.02 0.02 89 1023.8
20220126015013 22 43 0.0 0.0 0.00 0.02 0.02 88 1023.8
20220126014547 22 43 0.0 0.0 0.00 0.02 0.02 88 1023.8
20220126014011 22 43 0.0 0.0 0.00 0.02 0.02 88 1023.7
20220126013511 22 43 0.0 0.0 0.00 0.02 0.02 88 1023.7
20220126013015 23 43 0.0 0.0 0.00 0.02 0.02 88 1023.7
20220126012509 23 43 0.0 0.0 0.00 0.02 0.02 88 1023.7
20220126012008 23 43 0.0 0.0 0.00 0.02 0.02 88 1023.7
20220126011537 23 43 0.0 0.0 0.00 0.02 0.02 87 1023.7
20220126011010 23 43 0.0 0.0 0.00 0.02 0.02 87 1023.7
20220126010511 24 43 0.0 0.0 0.00 0.02 0.02 87 1023.7
20220126010015 24 43 0.0 0.0 0.00 0.02 0.02 87 1023.7
20220126005509 24 43 0.0 0.0 0.00 0.02 0.02 87 1023.7
20220126005004 24 43 0.0 0.0 0.00 0.02 0.02 86 1023.8
20220126004502 25 43 0.0 0.0 0.00 0.02 0.02 87 1023.7
20220126004003 25 43 0.0 0.0 0.00 0.02 0.02 87 1023.7
20220126003501 25 43 0.0 0.0 0.00 0.02 0.02 87 1023.6
20220126003154 25 43 0.0 0.0 0.00 0.02 0.02 87 1023.5
20220126002603 26 43 0.0 0.0 0.00 0.02 0.02 87 1023.5
20220126002059 26 43 0.0 2.0 0.00 0.02 0.02 87 1023.5
20220126001618 26 43 0.0 2.0 0.00 0.02 0.02 87 1023.5
20220126001112 26 38 0.0 1.0 0.00 0.02 0.02 87 1023.5
20220126000559 26 38 0.0 3.0 0.00 0.02 0.02 87 1023.5
20220126000227 26 38 1.0 4.0 0.00 0.02 0.02 87 1023.5
20220125235630 27 38 1.0 4.0 0.00 0.02 0.02 87 1023.5
20220125235121 27 56 1.0 3.0 0.00 0.02 0.02 87 1023.5
20220125234744 27 56 0.0 3.0 0.00 0.02 0.02 88 1023.4
20220125234102 27 54 0.0 3.0 0.00 0.02 0.02 87 1023.5
20220125233603 27 54 1.0 4.0 0.00 0.02 0.02 87 1023.4
20220125233131 27 58 0.0 3.0 0.00 0.02 0.02 87 1023.4
20220125232649 27 57 1.0 4.0 0.00 0.02 0.02 87 1023.4
20220125232053 27 68 0.0 6.0 0.00 0.02 0.02 87 1023.4
20220125231657 27 96 2.0 6.0 0.00 0.02 0.02 87 1023.4
20220125231053 27 82 0.0 4.0 0.00 0.02 0.02 87 1023.4
20220125230552 27 52 0.0 6.0 0.00 0.02 0.02 88 1023.3
20220125230204 27 61 1.0 6.0 0.00 0.02 0.02 88 1023.3
20220125225550 27 24 2.0 4.0 0.00 0.02 0.02 88 1023.3
20220125225050 27 41 2.0 5.0 0.00 0.02 0.02 88 1023.3
20220125224704 27 41 2.0 5.0 0.00 0.02 0.02 88 1023.3
20220125224052 28 41 2.0 8.0 0.00 0.02 0.02 88 1023.3
20220125223549 28 41 3.0 8.0 0.00 0.02 0.02 88 1023.3
20220125223135 28 24 2.0 8.0 0.01 0.02 0.02 88 1023.3
20220125222556 28 49 1.0 4.0 0.01 0.02 0.02 88 1023.2
20220125222048 27 49 1.0 4.0 0.01 0.02 0.02 88 1023.1
20220125221633 27 39 1.0 5.0 0.01 0.02 0.02 88 1023.1
20220125221112 27 40 2.0 8.0 0.01 0.02 0.02 88 1023.2
20220125220557 27 38 2.0 8.0 0.01 0.02 0.02 88 1023.1
20220125220124 27 26 2.0 6.0 0.02 0.02 0.02 88 1023.1
20220125215600 28 58 1.0 5.0 0.02 0.02 0.02 89 1023.0
20220125215130 27 39 3.0 5.0 0.02 0.02 0.02 89 1022.9
20220125214701 27 49 2.0 4.0 0.02 0.02 0.02 89 1022.9
20220125214110 27 65 1.0 6.0 0.02 0.02 0.02 89 1022.9
20220125213546 28 37 2.0 10.0 0.02 0.02 0.02 88 1022.9
20220125212551 28 36 4.0 8.0 0.01 0.01 0.01 88 1022.9
20220125212045 28 43 2.0 8.0 0.01 0.01 0.01 88 1022.8
20220125211045 29 36 2.0 5.0 0.01 0.01 0.01 89 1022.6
20220125210544 29 72 1.0 5.0 0.01 0.01 0.01 89 1022.6
20220125210105 28 34 2.0 6.0 0.00 0.00 0.00 89 1022.6
20220125205603 28 30 3.0 8.0 0.00 0.00 0.00 89 1022.6
20220125205044 28 59 3.0 8.0 0.00 0.00 0.00 89 1022.6
20220125204626 28 59 1.0 4.0 0.00 0.00 0.00 90 1022.6
20220125204055 28 65 1.0 9.0 0.00 0.00 0.00 90 1022.6
20220125203551 28 28 3.0 9.0 0.00 0.00 0.00 90 1022.6
20220125203118 28 44 2.0 9.0 0.00 0.00 0.00 90 1022.7
20220125202542 27 42 4.0 9.0 0.00 0.00 0.00 90 1022.7
20220125202042 27 9 4.0 11.0 0.00 0.00 0.00 90 1022.7
20220125201614 28 25 5.0 9.0 0.00 0.00 0.00 90 1022.7
20220125201042 28 28 1.0 9.0 0.00 0.00 0.00 90 1022.7
20220125200542 27 5 4.0 10.0 0.00 0.00 0.00 90 1022.7
20220125200050 27 31 5.0 10.0 0.00 0.00 0.00 90 1022.7
20220125195542 28 11 3.0 6.0 0.00 0.00 0.00 90 1022.7
20220125195040 28 11 4.0 7.0 0.00 0.00 0.00 90 1022.7
20220125194556 28 13 3.0 8.0 0.00 0.00 0.00 90 1022.7
20220125194043 28 26 3.0 12.0 0.00 0.00 0.00 90 1022.7
20220125193541 28 9 4.0 12.0 0.00 0.00 0.00 90 1022.7
20220125193056 28 25 5.0 11.0 0.00 0.00 0.00 90 1022.7
20220125192051 28 22 4.0 9.0 0.00 0.00 0.00 90 1022.7
20220125191551 28 63 3.0 12.0 0.00 0.00 0.00 91 1022.8
20220125191112 28 11 6.0 12.0 0.00 0.00 0.00 91 1022.8
20220125190538 28 34 3.0 9.0 0.00 0.00 0.00 91 1022.8
20220125190057 28 16 4.0 9.0 0.00 0.00 0.00 91 1022.8
20220125185546 28 28 3.0 8.0 0.00 0.00 0.00 91 1022.8
20220125185044 28 42 3.0 8.0 0.00 0.00 0.00 91 1022.9
20220125184641 28 28 4.0 8.0 0.00 0.00 0.00 91 1022.9
20220125184036 28 22 3.0 8.0 0.00 0.00 0.00 91 1022.9
20220125183541 28 9 5.0 10.0 0.00 0.00 0.00 91 1022.9
20220125183057 28 360 5.0 11.0 0.00 0.00 0.00 91 1022.9
20220125182548 28 5 5.0 11.0 0.00 0.00 0.00 91 1022.9
20220125182036 28 26 6.0 11.0 0.00 0.00 0.00 91 1022.9
20220125181704 28 5 7.0 11.0 0.00 0.00 0.00 91 1022.9
20220125181047 28 5 4.0 9.0 0.00 0.00 0.00 91 1022.8
20220125180534 28 36 2.0 9.0 0.00 0.00 0.00 91 1022.8
20220125180129 28 5 3.0 8.0 0.00 0.00 0.00 91 1022.8
20220125175538 28 342 3.0 6.0 0.00 0.00 0.00 92 1022.8
20220125175038 28 21 3.0 8.0 0.00 0.00 0.00 92 1022.8
20220125174536 28 27 3.0 8.0 0.00 0.00 0.00 92 1022.8
20220125174044 28 360 4.0 8.0 0.00 0.00 0.00 92 1022.8
20220125173532 28 5 4.0 8.0 0.00 0.00 0.00 92 1022.8
20220125173057 28 11 2.0 8.0 0.00 0.00 0.00 92 1022.8
20220125172535 28 5 3.0 8.0 0.00 0.00 0.00 92 1022.7
20220125171613 28 40 1.0 4.0 0.00 0.00 0.00 91 1022.6
20220125171030 28 40 2.0 5.0 0.00 0.00 0.00 91 1022.6
20220125170534 28 34 3.0 5.0 0.00 0.00 0.00 91 1022.5
20220125170131 28 50 2.0 9.0 0.00 0.00 0.00 91 1022.4
20220125165535 28 36 4.0 9.0 0.00 0.00 0.00 91 1022.3
20220125165033 28 37 3.0 9.0 0.00 0.00 0.00 91 1022.2
20220125164526 28 26 4.0 9.0 0.00 0.00 0.00 91 1022.0
20220125164024 28 30 4.0 8.0 0.00 0.00 0.00 91 1021.9
20220125163523 28 20 3.0 11.0 0.00 0.00 0.00 91 1021.8
20220125163101 28 16 5.0 11.0 0.00 0.00 0.00 91 1021.7
20220125162522 28 20 3.0 11.0 0.00 0.00 0.00 91 1021.7
20220125162020 28 33 5.0 11.0 0.00 0.00 0.00 91 1021.6
20220125161530 28 29 7.0 11.0 0.00 0.00 0.00 91 1021.3
20220125161019 28 33 3.0 8.0 0.00 0.00 0.00 91 1021.2
20220125160519 28 11 3.0 9.0 0.00 0.00 0.00 91 1021.1
20220125160059 28 24 5.0 11.0 0.00 0.00 0.00 91 1021.1
20220125155527 28 28 6.0 11.0 0.00 0.00 0.00 91 1021.0
20220125155015 29 27 3.0 6.0 0.00 0.00 0.00 91 1020.9
20220125154538 29 5 3.0 8.0 0.00 0.00 0.00 91 1020.7
20220125154021 29 14 4.0 8.0 0.00 0.00 0.00 91 1020.6
20220125153511 29 24 2.0 6.0 0.00 0.00 0.00 91 1020.5
20220125153022 29 355 3.0 5.0 0.00 0.00 0.00 91 1020.4
20220125152510 29 11 2.0 5.0 0.00 0.00 0.00 91 1020.2
20220125152008 29 355 3.0 5.0 0.00 0.00 0.00 91 1020.1
20220125151010 28 20 3.0 8.0 0.00 0.00 0.00 91 1019.8
20220125150515 28 5 3.0 8.0 0.00 0.00 0.00 90 1019.7
20220125150025 28 15 3.0 8.0 0.00 0.00 0.00 90 1019.6
20220125145505 28 21 3.0 8.0 0.00 0.00 0.00 90 1019.5
20220125145002 28 22 3.0 5.0 0.00 0.00 0.00 90 1019.4
20220125144504 28 32 3.0 6.0 0.00 0.00 0.00 90 1019.4
20220125143600 28 18 3.0 9.0 0.00 0.00 0.00 90 1019.2
20220125142558 29 26 2.0 8.0 0.00 0.00 0.00 90 1018.9
20220125142102 29 5 4.0 6.0 0.00 0.00 0.00 89 1018.8
20220125141705 29 30 3.0 8.0 0.00 0.00 0.00 90 1018.8
20220125141055 29 5 3.0 6.0 0.00 0.00 0.00 90 1018.7
20220125140603 29 9 3.0 6.0 0.00 0.00 0.00 89 1018.7
20220125140200 29 15 3.0 9.0 0.00 0.00 0.00 89 1018.6
20220125135553 29 5 4.0 9.0 0.00 0.00 0.00 89 1018.5
20220125134634 29 15 2.0 6.0 0.00 0.00 0.00 89 1018.3
20220125134050 28 29 4.0 6.0 0.00 0.00 0.00 89 1018.2
20220125133604 28 13 4.0 8.0 0.00 0.00 0.00 89 1018.1
20220125133136 28 360 4.0 6.0 0.00 0.00 0.00 89 1018.0
20220125132606 28 9 4.0 6.0 0.00 0.00 0.00 89 1017.9
20220125132050 28 360 3.0 6.0 0.00 0.00 0.00 89 1017.8
20220125131630 28 31 3.0 6.0 0.00 0.00 0.00 89 1017.7
20220125130556 28 9 2.0 5.0 0.00 0.00 0.00 89 1017.6
20220125130119 28 37 2.0 5.0 0.00 0.00 0.00 89 1017.5
20220125125541 28 355 3.0 6.0 0.00 0.00 0.00 89 1017.4
20220125125041 28 27 3.0 6.0 0.00 0.00 0.00 89 1017.3
20220125124611 28 14 2.0 6.0 0.00 0.00 0.00 89 1017.3
20220125124042 28 28 2.0 5.0 0.00 0.00 0.00 89 1017.2
20220125123539 28 30 2.0 5.0 0.00 0.00 0.00 88 1017.1
20220125123118 28 33 2.0 4.0 0.00 0.00 0.00 88 1017.0
20220125122537 28 24 2.0 4.0 0.00 0.00 0.00 89 1016.9
20220125122037 28 36 1.0 5.0 0.00 0.00 0.00 89 1016.8
20220125121603 28 5 3.0 5.0 0.00 0.00 0.00 88 1016.7
20220125121039 28 9 2.0 5.0 0.00 0.00 0.00 88 1016.7
20220125120538 28 24 2.0 4.0 0.00 0.00 0.00 88 1016.7
20220125120044 28 27 1.0 4.0 0.00 0.00 0.00 88 1016.6
20220125115537 28 13 2.0 5.0 0.00 0.00 0.00 88 1016.6
20220125115039 28 26 2.0 5.0 0.00 0.00 0.00 87 1016.5
20220125114605 28 30 1.0 5.0 0.00 0.00 0.00 88 1016.5
20220125114034 28 29 2.0 5.0 0.00 0.00 0.00 87 1016.4
20220125113535 29 15 2.0 6.0 0.00 0.00 0.00 87 1016.3
20220125113039 29 5 3.0 6.0 0.00 0.00 0.00 87 1016.3
20220125112529 29 38 3.0 6.0 0.00 0.00 0.00 86 1016.2
20220125112032 29 37 3.0 6.0 0.00 0.00 0.00 86 1016.1
20220125111616 29 10 4.0 8.0 0.00 0.00 0.00 85 1016.1